Bookmark and Share
Track history (hours):
 

Blue Cat

Last reported at 2014-Apr-20 23:21 UTC. Time now 2014-Apr-23 07:17 UTC.
Position N 32°15' E 119°53'.

Length 190 m; draft 6.1 m.

Type: Cargo ship. MMSI: 240940000.

NotesDate/timePositionNaut miles runAvg speedWind from/ knotsBaromVisibWave heightAir tempDewpointWater temp
2014-Apr-20 23:21N 32°15' E 119°53'6 1.2
2014-Apr-20 18:23N 32°09' E 119°54'0 0.0
2014-Apr-20 14:11N 32°09' E 119°54'0 0.0
2014-Apr-20 13:32N 32°09' E 119°54'0 0.1
2014-Apr-20 09:09N 32°09' E 119°54'5 8.4
2014-Apr-20 08:30N 32°04' E 119°56'10 9.3
2014-Apr-20 07:27N 31°57' E 120°05'8 8.5
2014-Apr-20 06:30N 31°56' E 120°14'9 9.3
2014-Apr-20 05:32N 32°01' E 120°23'8 7.9
2014-Apr-20 04:33N 32°04' E 120°32'9 9.3
2014-Apr-20 03:33N 32°00' E 120°42'9 9.1
2014-Apr-20 02:33N 31°57' E 120°52'1111.3
2014-Apr-20 01:33N 31°47' E 120°57'1211.1
2014-Apr-20 00:27N 31°41' E 121°10'70 1.6
2014-Apr-18 03:22N 31°06' E 122°22'  
2014-Apr-12 07:26N 34°51' E 120°45'1112.4
2014-Apr-12 06:33N 34°52' E 120°31'1211.8
2014-Apr-12 05:33N 34°52' E 120°17'1211.6
2014-Apr-12 04:33N 34°52' E 120°03'1212.0
2014-Apr-12 03:33N 34°51' E 119°48'9 9.3
2014-Apr-12 02:33N 34°47' E 119°38'9 9.1
2014-Apr-12 01:33N 34°45' E 119°27'1 0.5
2014-Apr-12 00:32N 34°44' E 119°27'0 0.0
2014-Apr-11 23:32N 34°44' E 119°27'0 0.0
2014-Apr-11 22:32N 34°44' E 119°27'0 0.0
2014-Apr-11 21:32N 34°44' E 119°27'0 0.0
2014-Apr-11 20:32N 34°44' E 119°27'0 0.0
2014-Apr-11 19:32N 34°44' E 119°27'0 0.0
2014-Apr-11 18:32N 34°44' E 119°27'0 0.0
2014-Apr-11 17:32N 34°44' E 119°27'0 0.0
2014-Apr-11 16:32N 34°44' E 119°27'0 0.0
2014-Apr-11 15:32N 34°44' E 119°27'0 0.0
2014-Apr-11 14:32N 34°44' E 119°27'0 0.0
2014-Apr-11 13:32N 34°44' E 119°27'0 0.0
2014-Apr-11 12:32N 34°44' E 119°27'0 0.0
2014-Apr-11 11:26N 34°44' E 119°27'0 0.0
2014-Apr-11 10:32N 34°44' E 119°27'0 0.0
2014-Apr-11 09:26N 34°44' E 119°27'0 0.0
2014-Apr-11 08:32N 34°44' E 119°27'0 0.0
2014-Apr-11 07:32N 34°44' E 119°27'0 0.0
2014-Apr-11 06:32N 34°44' E 119°27'0 0.0
2014-Apr-11 05:32N 34°44' E 119°27'0 0.0
2014-Apr-11 04:32N 34°44' E 119°27'0 0.0
2014-Apr-11 03:32N 34°44' E 119°27'0 0.0
2014-Apr-11 02:32N 34°44' E 119°27'0 0.0
2014-Apr-11 01:32N 34°44' E 119°27'0 0.0
2014-Apr-11 00:32N 34°44' E 119°27'0 0.0
2014-Apr-10 23:32N 34°44' E 119°27'  

Dump ship's entire track history

sailing weather and tide predictions

Blue Cat — SVAR5 — position and weather